#timestamp,LO_Frequency,Hit,StdDev 
1545454815.3,286047000.8,N
1545454835.2,286047002.4,N
1545454855.0,286047002.5,N
1545454855.9,286047002.5,N
1545454875.8,286047001.3,N
1545454895.6,286047004.4,N
1545454915.4,286046999.7,N
1545454935.3,286047000.7,N
1545454955.1,286046999.8,N
1545454956.0,286046999.8,N
1545454975.8,286046998.1,N
1545454995.7,286046999.9,N
1545455015.5,286047000.0,N
1545455035.3,286047002.8,N
1545455055.2,286047001.1,N
1545455075.0,286046998.3,N
1545455075.9,286046998.3,N
1545455095.8,286046998.7,N
1545455115.6,286046998.3,N
1545455135.4,286046998.7,N
1545455155.3,286046998.4,N
1545455175.1,286047000.6,N
1545455195.8,286047000.3,N
1545455215.7,286046999.7,N
1545455235.5,286047000.7,N
1545455255.4,286047000.8,N
1545455275.2,286047000.7,N
1545455295.0,286047001.2,N
1545455295.9,286047001.2,N
1545455315.8,286047000.7,N
1545455335.6,286047000.1,N
1545455355.4,286047002.3,N
1545455375.3,286047004.4,N
1545455395.1,286047004.3,N
1545455415.9,286047002.2,N
1545455435.7,286047001.9,N
1545455455.5,286047001.4,N
1545455475.4,286047001.6,N
1545455495.2,286047002.5,N
1545455515.0,286047004.4,N
1545455516.0,286047004.4,N
1545455535.8,286047000.4,N
1545455555.6,286047000.8,N
1545455575.5,286047000.4,N
1545455595.3,286047001.2,N
1545455615.1,286047000.6,N
1545455635.9,286047002.0,N
1545455655.7,286047004.2,N
1545455675.6,286047004.4,N
1545455695.4,286047002.8,N
1545455715.2,286047000.1,N
1545455735.1,286046998.6,N
1545455736.0,286046998.6,N
1545455755.8,286047000.8,N
1545455775.6,286047000.4,N
1545455795.5,286047001.2,N
1545455815.3,286047000.2,N
1545455835.2,286046998.5,N
1545455855.9,286047002.3,N
1545455905.8,286047000.5,E
1545455915.7,286047000.3,N
1545455935.5,286046999.7,P
1545455955.4,286047000.1,N
1545455975.2,286047002.2,Y
1545455995.0,286047002.1,P
1545455995.9,286047002.1,N
1545456015.8,286047001.6,N
1545456035.6,286047001.4,N
1545456055.5,286047001.9,N
1545456075.3,286047002.7,Y
1545456095.1,286046998.8,P
1545456115.9,286046998.4,N
1545456135.7,286046998.9,N
1545456155.5,286046996.6,N
1545456175.4,286046999.5,N
1545456195.2,286046999.0,N
1545456215.1,286046998.9,N
1545456216.0,286046998.9,N
1545456235.8,286047000.2,N
1545456255.6,286047002.5,N
1545456275.5,286047001.8,N
1545456295.3,286047004.3,N
1545456315.1,286047001.5,N
1545456335.9,286047001.6,N
1545456355.7,286047002.3,N
1545456375.6,286047000.6,N
1545456395.4,286047000.3,N
1545456415.2,286046999.0,N
1545456435.1,286046997.0,N
1545456436.0,286046997.0,N
1545456455.8,286046997.6,N
1545456475.6,286046995.7,N
1545456495.5,286046993.7,Y
1545456515.3,286046995.6,P
1545456535.2,286046995.1,N
1545456555.9,286046996.9,N
1545456575.7,286046997.4,N
1545456595.6,286046998.9,N
1545456615.4,286046997.0,N
1545456635.2,286046997.1,N
1545456655.1,286046999.5,N
1545456656.0,286046999.5,N
1545456675.8,286046999.1,N
1545456695.7,286046999.5,N
1545456715.5,286046996.6,N
1545456735.3,286046998.6,N
1545456755.2,286046999.1,N
1545456775.9,286047000.6,N
1545456795.7,286046998.1,N
1545456815.6,286047001.1,N
1545456835.4,286046998.4,N
1545456855.2,286047000.7,N
1545456875.1,286046998.5,N
1545456876.0,286046998.5,N
1545456895.8,286047000.6,N
1545456915.7,286047000.0,N
1545456935.5,286047000.9,N
1545456955.3,286047001.2,N
1545456975.2,286047000.6,N
1545456995.0,286046998.4,N
1545456995.9,286046998.4,N
1545457015.7,286046998.9,N
1545457035.6,286046996.6,N
1545457055.4,286046997.4,N
1545457075.3,286046996.6,N
1545457095.1,286046999.2,N
1545457096.0,286046999.2,N
1545457115.8,286046998.2,N
1545457135.7,286046999.9,N
1545457155.5,286047000.3,N
1545457175.3,286047002.8,N
1545457195.2,286047000.0,N
1545457215.0,286047000.3,N
1545457215.9,286047000.3,N
1545457235.8,286046998.7,N
1545457255.6,286047001.0,N
1545457275.4,286047000.2,N
1545457295.3,286046999.7,N
1545457315.1,286047002.1,N
1545457335.8,286047001.5,N
1545457355.7,286046999.8,N
1545457375.5,286047000.1,N
1545457395.4,286047002.3,N
1545457415.2,286047001.0,N
1545457435.0,286046999.9,N
1545457466.0,286047002.2,E
1545457475.9,286047002.4,N
1545457495.7,286047000.0,P
1545457515.6,286047000.6,N
1545457535.4,286046998.8,N
1545457555.2,286046997.0,N
1545457575.1,286046997.7,N
1545457576.0,286046997.7,N
1545457595.8,286046997.0,N
1545457615.7,286046998.3,N
1545457635.5,286046998.6,N
1545457655.3,286046998.7,N
1545457675.2,286046998.3,N
1545457695.9,286046998.9,N
1545457715.7,286046998.8,N
1545457735.6,286046999.2,N
1545457755.4,286046999.4,N
1545457775.2,286046996.9,N
1545457795.1,286046997.5,N
1545457796.0,286046997.5,N
1545457815.8,286046997.6,N
1545457835.7,286046995.3,Y
1545457855.5,286046996.9,P
1545457875.3,286046999.5,N
1545457895.2,286046999.3,N
1545457915.0,286046997.2,N
1545457915.9,286046997.2,N
1545457935.8,286046997.2,N
1545457955.6,286046999.2,N
1545457975.4,286047001.2,N
1545457995.3,286047002.1,N
1545458015.1,286047003.9,N
1545458035.8,286047004.4,N
1545458055.7,286047002.2,N
1545458075.5,286047002.6,N
1545458095.4,286047002.2,N
1545458115.2,286047004.0,N
1545458135.0,286047002.2,N
1545458135.9,286047002.2,N
1545458155.8,286047001.9,N
1545458175.6,286047001.5,N
1545458195.4,286047002.1,N
1545458215.3,286046999.7,N
1545458235.1,286047001.9,N
1545458255.9,286047003.9,N
1545458275.7,286046999.7,N
1545458295.5,286047002.4,N
1545458315.4,286047002.8,N
1545458335.2,286046999.8,N
1545458355.0,286047002.3,N
1545458355.9,286047002.3,N
1545458375.8,286047000.1,N
1545458395.6,286046998.7,N
